Location: La Fredeussais
(48.1780°N, 1.3980°W)
Time: 16:39:34
(UTC+00:00)

Cosmos 1242 Rocket - Pass Details

Date: 09 May 2021
Orbit: 445 x 484 km, 81.2° (Epoch: 16 June)

Event Time Altitude Azimuth Distance (km) Brightness Sun altitude
Exits shadow 21:26:12 - 213° (SSW) 2,471 6.0 -15.6°
Reaches altitude 10° 21:28:19 10° 223° (SW) 1,638 5.1 -15.8°
Maximum altitude 21:31:34 32° 288° (WNW) 835 4.3 -16.1°
Drops below altitude 10° 21:34:49 10° 353° (N) 1,630 6.2 -16.5°
Sets 21:37:03 0° 4° (N) 2,504 7.0 -16.7°
